EN

Hourly Weather Alojzow

Today, 25 January, Monday

Time Temperature Precipitation Wind Pressure Humidity
00:00 -2°C° 0 mm 2 mps 731 mmHg 88%
01:00 -2°C° 0 mm 2 mps 731 mmHg 89%
02:00 -2°C° 0 mm 2 mps 731 mmHg 87%
03:00 -2°C° 0 mm 2 mps 731 mmHg 85%
04:00 +1°C° 0 mm 1 mps 731 mmHg 83%
05:00 +1°C° 0 mm 1 mps 731 mmHg 83%
06:00 +1°C° 0 mm 1 mps 730 mmHg 84%
07:00 +1°C° 0 mm 1 mps 730 mmHg 84%
08:00 0°C° 0 mm 1 mps 734 mmHg 90%
09:00 -2°C° 0 mm 2 mps 734 mmHg 88%
10:00 -1°C° 0 mm 2 mps 734 mmHg 86%
11:00 -1°C° 0 mm 3 mps 734 mmHg 84%
12:00 0°C° 0 mm 3 mps 734 mmHg 83%
13:00 0°C° 0 mm 3 mps 734 mmHg 82%
14:00 -1°C° 0 mm 4 mps 735 mmHg 83%
15:00 -2°C° 0 mm 4 mps 735 mmHg 85%
16:00 -2°C° 0 mm 5 mps 735 mmHg 86%
17:00 -2°C° 0 mm 5 mps 735 mmHg 84%
18:00 -4°C° 0 mm 5 mps 735 mmHg 82%
19:00 -4°C° 0 mm 6 mps 735 mmHg 80%
20:00 -4°C° 0 mm 6 mps 735 mmHg 81%
21:00 -4°C° 0 mm 6 mps 735 mmHg 82%
22:00 -4°C° 0 mm 6 mps 735 mmHg 84%
23:00 -4°C° 0 mm 6 mps 735 mmHg 84%

Tomorrow, 26 January, Tuesday

Time Temperature Precipitation Wind Pressure Humidity
00:00 -4°C° 0 mm 7 mps 735 mmHg 83%
01:00 -4°C° 0 mm 7 mps 735 mmHg 83%
02:00 -4°C° 0 mm 7 mps 735 mmHg 83%
03:00 -4°C° 0 mm 7 mps 735 mmHg 83%
04:00 -4°C° 0 mm 7 mps 735 mmHg 82%
05:00 -4°C° 0 mm 7 mps 735 mmHg 83%
06:00 -5°C° 0 mm 8 mps 735 mmHg 84%
07:00 -5°C° 0 mm 8 mps 735 mmHg 84%
08:00 -5°C° 0.1 mm 8 mps 735 mmHg 84%
09:00 -5°C° 0.1 mm 8 mps 736 mmHg 85%
10:00 -5°C° 0.1 mm 8 mps 736 mmHg 85%
11:00 -4°C° 0 mm 8 mps 736 mmHg 82%
12:00 -4°C° 0 mm 8 mps 736 mmHg 80%
13:00 -4°C° 0 mm 8 mps 736 mmHg 77%
14:00 -4°C° 0 mm 8 mps 737 mmHg 77%
15:00 -4°C° 0 mm 8 mps 737 mmHg 78%
16:00 -4°C° 0 mm 7 mps 737 mmHg 78%
17:00 -4°C° 0.1 mm 7 mps 738 mmHg 82%
18:00 -4°C° 0.1 mm 7 mps 738 mmHg 85%
19:00 -4°C° 0.1 mm 7 mps 738 mmHg 88%
20:00 -4°C° 0.1 mm 7 mps 738 mmHg 86%
21:00 -4°C° 0.1 mm 7 mps 738 mmHg 84%
22:00 -4°C° 0.1 mm 7 mps 739 mmHg 82%
23:00 -4°C° 0 mm 7 mps 739 mmHg 81%

Day after tomorrow, 27 January, Wednesday

Time Temperature Precipitation Wind Pressure Humidity
00:00 -4°C° 0 mm 7 mps 739 mmHg 80%
01:00 -4°C° 0 mm 7 mps 739 mmHg 79%
02:00 -5°C° 0 mm 6 mps 739 mmHg 80%
03:00 -5°C° 0 mm 6 mps 739 mmHg 80%
04:00 -5°C° 0 mm 6 mps 739 mmHg 80%
05:00 -5°C° 0 mm 6 mps 739 mmHg 81%
06:00 -5°C° 0 mm 6 mps 739 mmHg 83%
07:00 -5°C° 0 mm 5 mps 739 mmHg 84%
08:00 -4°C° 0 mm 5 mps 739 mmHg 83%
09:00 -4°C° 0 mm 5 mps 739 mmHg 81%
10:00 -2°C° 0 mm 5 mps 739 mmHg 80%
11:00 -2°C° 0 mm 5 mps 739 mmHg 78%
12:00 -2°C° 0 mm 4 mps 739 mmHg 76%
13:00 -1°C° 0 mm 4 mps 739 mmHg 73%
14:00 -2°C° 0 mm 4 mps 739 mmHg 76%
15:00 -1°C° 0 mm 3 mps 739 mmHg 78%
16:00 -2°C° 0 mm 2 mps 739 mmHg 81%
17:00 -2°C° 0 mm 2 mps 739 mmHg 83%
18:00 -2°C° 0 mm 2 mps 739 mmHg 85%
19:00 -3°C° 0 mm 2 mps 740 mmHg 86%
20:00 -3°C° 0 mm 2 mps 740 mmHg 89%
21:00 -3°C° 0 mm 2 mps 740 mmHg 91%
22:00 -3°C° 0 mm 2 mps 740 mmHg 93%
23:00 -3°C° 0 mm 2 mps 740 mmHg 94%

28 January, Thursday

Time Temperature Precipitation Wind Pressure Humidity
00:00 -3°C° 0 mm 2 mps 740 mmHg 94%
01:00 -3°C° 0 mm 2 mps 741 mmHg 95%
02:00 -3°C° 0 mm 2 mps 741 mmHg 94%
03:00 -3°C° 0 mm 2 mps 741 mmHg 94%
04:00 -3°C° 0 mm 2 mps 741 mmHg 93%
05:00 -3°C° 0 mm 2 mps 741 mmHg 94%
06:00 -3°C° 0 mm 2 mps 741 mmHg 95%
07:00 -3°C° 0 mm 2 mps 741 mmHg 96%
08:00 -3°C° 0 mm 2 mps 741 mmHg 92%
09:00 -2°C° 0 mm 3 mps 741 mmHg 87%
10:00 -1°C° 0 mm 3 mps 741 mmHg 83%
11:00 -1°C° 0 mm 3 mps 741 mmHg 80%
12:00 -1°C° 0 mm 3 mps 741 mmHg 78%
13:00 -1°C° 0 mm 2 mps 740 mmHg 75%
14:00 -1°C° 0 mm 2 mps 740 mmHg 77%
15:00 +1°C° 0 mm 1 mps 740 mmHg 79%
16:00 +1°C° 0 mm 1 mps 739 mmHg 81%
17:00 0°C° 0 mm 1 mps 739 mmHg 84%
18:00 0°C° 0 mm 1 mps 739 mmHg 86%
19:00 -3°C° 0 mm 2 mps 739 mmHg 89%

29 January, Friday

Time Temperature Precipitation Wind Pressure Humidity

30 January, Saturday

Time Temperature Precipitation Wind Pressure Humidity
Show more